• In Norway
  • List of Countries
  • For 7 days
  • Water Temperature
  • Satellite Maps
  • Weather Map
  • Weather Widgets
  • user-avatar
    Login

    Hourly Weather Melbourne

    Today, 15 November, Thursday

    Time Temperature Precipitation Wind Pressure Humidity
    00:00 +14°C° 0.1 mm 2 mps 763 mmHg 91%
    01:00 +13°C° 0.1 mm 3 mps 763 mmHg 91%
    02:00 +12°C° 0 mm 3 mps 763 mmHg 91%
    03:00 +12°C° 0 mm 3 mps 764 mmHg 90%
    04:00 +11°C° 0 mm 3 mps 764 mmHg 90%
    05:00 +12°C° 0 mm 3 mps 764 mmHg 86%
    06:00 +12°C° 0 mm 3 mps 765 mmHg 83%
    07:00 +13°C° 0 mm 3 mps 765 mmHg 79%
    08:00 +14°C° 0 mm 3 mps 765 mmHg 70%
    09:00 +15°C° 0 mm 4 mps 765 mmHg 61%
    10:00 +18°C° 0 mm 4 mps 765 mmHg 52%
    11:00 +18°C° 0 mm 4 mps 765 mmHg 49%
    12:00 +19°C° 0 mm 4 mps 765 mmHg 47%
    13:00 +20°C° 0 mm 5 mps 765 mmHg 44%
    14:00 +19°C° 0 mm 5 mps 765 mmHg 45%
    15:00 +19°C° 0 mm 5 mps 765 mmHg 45%
    16:00 +19°C° 0 mm 5 mps 764 mmHg 46%
    17:00 +17°C° 0 mm 4 mps 765 mmHg 52%
    18:00 +15°C° 0 mm 4 mps 765 mmHg 57%
    19:00 +13°C° 0 mm 3 mps 765 mmHg 63%
    20:00 +12°C° 0 mm 3 mps 766 mmHg 68%
    21:00 +11°C° 0 mm 3 mps 766 mmHg 74%
    22:00 +10°C° 0 mm 3 mps 767 mmHg 79%
    23:00 +10°C° 0 mm 3 mps 766 mmHg 82%

    Tomorrow, 16 November, Friday

    Time Temperature Precipitation Wind Pressure Humidity
    00:00 +9°C° 0 mm 3 mps 766 mmHg 84%
    01:00 +9°C° 0 mm 2 mps 766 mmHg 87%
    02:00 +8°C° 0 mm 2 mps 765 mmHg 89%
    03:00 +8°C° 0 mm 2 mps 765 mmHg 91%
    04:00 +8°C° 0 mm 1 mps 765 mmHg 92%
    05:00 +10°C° 0 mm 1 mps 765 mmHg 86%
    06:00 +11°C° 0 mm 1 mps 765 mmHg 80%
    07:00 +13°C° 0 mm 1 mps 765 mmHg 73%
    08:00 +15°C° 0 mm 1 mps 765 mmHg 65%
    09:00 +17°C° 0 mm 2 mps 765 mmHg 56%
    10:00 +19°C° 0 mm 2 mps 764 mmHg 48%
    11:00 +20°C° 0 mm 3 mps 764 mmHg 46%
    12:00 +20°C° 0 mm 4 mps 764 mmHg 45%
    13:00 +21°C° 0 mm 4 mps 764 mmHg 43%
    14:00 +20°C° 0 mm 5 mps 764 mmHg 45%
    15:00 +19°C° 0 mm 5 mps 764 mmHg 47%
    16:00 +19°C° 0 mm 5 mps 764 mmHg 49%
    17:00 +17°C° 0 mm 4 mps 764 mmHg 53%
    18:00 +14°C° 0 mm 4 mps 764 mmHg 58%
    19:00 +13°C° 0 mm 4 mps 765 mmHg 62%
    20:00 +12°C° 0 mm 3 mps 766 mmHg 68%
    21:00 +11°C° 0 mm 3 mps 766 mmHg 73%
    22:00 +10°C° 0 mm 3 mps 767 mmHg 79%
    23:00 +9°C° 0 mm 3 mps 767 mmHg 81%

    Day after tomorrow, 17 November, Saturday

    Time Temperature Precipitation Wind Pressure Humidity
    00:00 +9°C° 0 mm 2 mps 766 mmHg 82%
    01:00 +8°C° 0 mm 2 mps 766 mmHg 84%
    02:00 +8°C° 0 mm 2 mps 766 mmHg 85%
    03:00 +8°C° 0 mm 2 mps 766 mmHg 87%
    04:00 +8°C° 0 mm 2 mps 766 mmHg 88%
    05:00 +9°C° 0 mm 3 mps 766 mmHg 83%
    06:00 +11°C° 0 mm 3 mps 767 mmHg 78%
    07:00 +12°C° 0 mm 3 mps 767 mmHg 72%
    08:00 +14°C° 0 mm 3 mps 767 mmHg 65%
    09:00 +17°C° 0 mm 4 mps 767 mmHg 57%
    10:00 +18°C° 0 mm 4 mps 767 mmHg 50%
    11:00 +19°C° 0 mm 4 mps 766 mmHg 48%
    12:00 +20°C° 0 mm 5 mps 766 mmHg 46%
    13:00 +21°C° 0 mm 5 mps 766 mmHg 44%
    14:00 +21°C° 0 mm 5 mps 766 mmHg 46%
    15:00 +21°C° 0 mm 5 mps 765 mmHg 47%
    16:00 +20°C° 0 mm 5 mps 765 mmHg 49%
    17:00 +19°C° 0 mm 5 mps 766 mmHg 55%
    18:00 +17°C° 0 mm 4 mps 766 mmHg 61%
    19:00 +15°C° 0 mm 4 mps 766 mmHg 68%
    20:00 +14°C° 0 mm 4 mps 767 mmHg 74%
    21:00 +12°C° 0 mm 3 mps 767 mmHg 79%
    22:00 +11°C° 0 mm 3 mps 767 mmHg 85%
    23:00 +11°C° 0 mm 3 mps 767 mmHg 87%

    18 November, Sunday

    Time Temperature Precipitation Wind Pressure Humidity
    00:00 +10°C° 0 mm 2 mps 767 mmHg 89%
    01:00 +9°C° 0 mm 2 mps 767 mmHg 91%
    02:00 +9°C° 0 mm 2 mps 766 mmHg 90%
    03:00 +9°C° 0 mm 1 mps 766 mmHg 90%
    04:00 +9°C° 0 mm 1 mps 766 mmHg 89%
    05:00 +11°C° 0 mm 1 mps 766 mmHg 80%
    06:00 +13°C° 0 mm 1 mps 766 mmHg 71%
    07:00 +15°C° 0 mm 1 mps 766 mmHg 62%
    08:00 +18°C° 0 mm 1 mps 766 mmHg 56%
    09:00 +20°C° 0 mm 2 mps 766 mmHg 50%
    10:00 +24°C° 0 mm 2 mps 766 mmHg 44%
    11:00 +25°C° 0 mm 2 mps 765 mmHg 41%
    12:00 +27°C° 0 mm 2 mps 765 mmHg 37%
    13:00 +28°C° 0 mm 2 mps 764 mmHg 34%
    14:00 +28°C° 0 mm 2 mps 764 mmHg 34%
    15:00 +28°C° 0 mm 2 mps 763 mmHg 34%
    16:00 +28°C° 0 mm 3 mps 763 mmHg 34%
    17:00 +26°C° 0 mm 3 mps 763 mmHg 40%
    18:00 +24°C° 0 mm 3 mps 763 mmHg 47%
    19:00 +21°C° 0 mm 3 mps 763 mmHg 53%
    20:00 +20°C° 0 mm 3 mps 763 mmHg 57%
    21:00 +18°C° 0 mm 3 mps 764 mmHg 61%
    22:00 +17°C° 0 mm 3 mps 764 mmHg 65%
    23:00 +17°C° 0 mm 2 mps 764 mmHg 66%

    19 November, Monday

    Time Temperature Precipitation Wind Pressure Humidity
    00:00 +16°C° 0 mm 2 mps 763 mmHg 68%
    01:00 +16°C° 0 mm 2 mps 763 mmHg 69%
    02:00 +16°C° 0 mm 3 mps 763 mmHg 68%
    03:00 +16°C° 0 mm 3 mps 763 mmHg 68%
    04:00 +15°C° 0 mm 4 mps 763 mmHg 67%
    05:00 +17°C° 0 mm 4 mps 763 mmHg 64%
    06:00 +18°C° 0 mm 4 mps 763 mmHg 61%
    07:00 +17°C° 0 mm 5 mps 763 mmHg 58%
    08:00 +21°C° 0 mm 5 mps 763 mmHg 52%
    09:00 +23°C° 0 mm 5 mps 763 mmHg 45%
    10:00 +26°C° 0 mm 5 mps 762 mmHg 38%
    11:00 +27°C° 0 mm 5 mps 762 mmHg 35%
    12:00 +29°C° 0 mm 5 mps 761 mmHg 32%
    13:00 +30°C° 0 mm 5 mps 760 mmHg 29%
    14:00 +30°C° 0 mm 5 mps 759 mmHg 28%
    15:00 +30°C° 0 mm 4 mps 759 mmHg 28%
    16:00 +30°C° 0 mm 4 mps 758 mmHg 27%
    17:00 +28°C° 0 mm 4 mps 758 mmHg 33%
    18:00 +26°C° 0 mm 3 mps 758 mmHg 40%
    19:00 +24°C° 0 mm 2 mps 758 mmHg 46%
    20:00 +24°C° 0 mm 3 mps 758 mmHg 44%
    21:00 +22°C° 0 mm 3 mps 758 mmHg 43%
    22:00 +21°C° 0 mm 4 mps 758 mmHg 42%
    23:00 +21°C° 0 mm 4 mps 758 mmHg 40%

    20 November, Tuesday

    Time Temperature Precipitation Wind Pressure Humidity
    00:00 +21°C° 0 mm 4 mps 757 mmHg 38%
    01:00 +21°C° 0 mm 4 mps 757 mmHg 35%
    02:00 +21°C° 0 mm 4 mps 756 mmHg 35%
    03:00 +21°C° 0 mm 4 mps 756 mmHg 35%
    04:00 +21°C° 0 mm 4 mps 756 mmHg 34%
    05:00 +21°C° 0 mm 5 mps 756 mmHg 37%
    06:00 +22°C° 0 mm 5 mps 757 mmHg 39%
    07:00 +22°C° 0 mm 6 mps 757 mmHg 41%
    08:00 +26°C° 0 mm 6 mps 756 mmHg 39%
    09:00 +28°C° 0 mm 6 mps 755 mmHg 37%
    10:00 +30°C° 0 mm 6 mps 755 mmHg 35%
    11:00 +32°C° 0 mm 6 mps 754 mmHg 32%
    12:00 +33°C° 0 mm 6 mps 753 mmHg 30%
    13:00 +34°C° 0 mm 6 mps 752 mmHg 27%
    14:00 +34°C° 0 mm 6 mps 752 mmHg 28%
    15:00 +34°C° 0 mm 6 mps 751 mmHg 29%
    16:00 +34°C° 0 mm 5 mps 751 mmHg 30%
    17:00 +29°C° 1.1 mm 5 mps 751 mmHg 49%
    18:00 +25°C° 1.1 mm 4 mps 751 mmHg 68%
    19:00 +21°C° 1.1 mm 3 mps 751 mmHg 86%
    20:00 +20°C° 1.6 mm 3 mps 751 mmHg 90%
    21:00 +19°C° 1.6 mm 3 mps 751 mmHg 93%
    22:00 +19°C° 1.6 mm 3 mps 750 mmHg 97%
    23:00 +19°C° 0.1 mm 2 mps 750 mmHg 96%
    Show more